Flag for Hong Kong Weather past 2 weeks in Hong Kong, Hong Kong

Now
61 °F

Clear.


Feels Like: 61 °F
Forecast: 52 / 61 °F
Wind: 17 mph from Northeast

Location: National Airport

Current Time: Dec 21, 2014 at 10:55:58 PM

Latest Report: Dec 21, 2014 at 10:30 PM


Visibility: 10 mi

Pressure: 30.30 "Hg

Humidity: 36%

Dew point: 34 °F

Location of Hong KongLocation

Historic Weather in Hong Kong — Graph

°F

Hong Kong temperature yesterday

Maximum temperature yesterday: 68 °F (at 5:00 PM)
Minimum temperature yesterday: 54 °F (at 12:00 AM)
Average temperature yesterday: 60 °F

Past Weeks' High & Low Weather Summary

 TemperatureHumidityPressure
High73 °F (Dec 9, 12:00 PM)94% (Dec 19, 9:30 AM)30.42 "Hg (Dec 19, 9:30 AM)
Low52 °F (Dec 13, 5:30 AM)11% (Dec 17, 12:30 PM)30.04 "Hg (Dec 10, 2:00 PM)
Average63 °F52%30.20 "Hg
* Reported Dec 6 9:00 PM — Dec 21 9:30 PM, Hong Kong, Weather by CustomWeather, © 2014

Note: Actual official high and low records may vary slightly from our data, if they occured in-between our weather recording intervals... More about our weather records

Advertising

Hong Kong weather history for previous 24 hours

 ConditionsComfort  
Time TempWeatherWind HumidityBarometerVisibility
9:30 PM
Dec 21
61 °FClear.16 mph36%30.27 "Hg10 mi
9:00 PM64 °FClear.16 mph32%30.27 "Hg10 mi
8:30 PM63 °FClear.15 mph39%30.24 "Hg10 mi
8:00 PM64 °FClear.14 mph37%30.24 "Hg10 mi
7:30 PM64 °FClear.14 mph40%30.24 "Hg10 mi
7:00 PM64 °FClear.16 mph40%30.21 "Hg10 mi
6:30 PM64 °FClear.17 mph37%30.21 "Hg10 mi
6:00 PM66 °FClear.18 mph35%30.21 "Hg10 mi
5:30 PM66 °FSunny.15 mph37%30.21 "Hg10 mi
5:00 PM68 °FSunny.14 mph35%30.18 "Hg10 mi
4:30 PM68 °FSunny.15 mph35%30.18 "Hg10 mi
4:00 PM68 °FSunny.16 mph35%30.18 "Hg10 mi
3:30 PM70 °FSunny.16 mph35%30.18 "Hg10 mi
3:00 PM68 °FSunny.15 mph38%30.18 "Hg10 mi
2:30 PM68 °FSunny.17 mph38%30.18 "Hg10 mi
2:00 PM68 °FSunny.17 mph35%30.18 "Hg10 mi
1:30 PM68 °FSunny.14 mph38%30.21 "Hg10 mi
1:00 PM68 °FSunny.14 mph35%30.21 "Hg10 mi
12:30 PM66 °FSunny.15 mph37%30.24 "Hg10 mi
12:00 PM66 °FSunny.9 mph40%30.24 "Hg10 mi
11:30 AM66 °FPassing clouds.12 mph40%30.27 "HgN/A
11:00 AM64 °FPassing clouds.6 mph43%30.27 "HgN/A
10:30 AM64 °FPassing clouds.7 mph43%30.27 "HgN/A
10:00 AM63 °FScattered clouds.8 mph45%30.27 "HgN/A
9:30 AM63 °FPassing clouds.12 mph52%30.27 "HgN/A
9:00 AM63 °FPassing clouds.12 mph49%30.24 "HgN/A
8:30 AM61 °FPassing clouds.10 mph48%30.24 "HgN/A
8:00 AM61 °FPassing clouds.15 mph52%30.21 "HgN/A
7:30 AM61 °FPassing clouds.14 mph55%30.21 "HgN/A
7:00 AM61 °FPassing clouds.16 mph59%30.18 "HgN/A
6:30 AM61 °FPassing clouds.12 mph59%30.18 "HgN/A
6:00 AM61 °FPassing clouds.12 mph63%30.15 "HgN/A
5:30 AM61 °FPassing clouds.7 mph59%30.15 "HgN/A
5:00 AM61 °FPassing clouds.10 mph68%30.15 "HgN/A
4:30 AM61 °FPassing clouds.10 mph72%30.15 "HgN/A
4:00 AM63 °FPassing clouds.9 mph64%30.15 "HgN/A
3:30 AM63 °FPassing clouds.13 mph68%30.12 "HgN/A
3:00 AM63 °FPassing clouds.15 mph73%30.15 "HgN/A
2:30 AM63 °FPassing clouds.12 mph68%30.15 "HgN/A
2:00 AM63 °FPassing clouds.14 mph68%30.15 "HgN/A
1:00 AM64 °FPassing clouds.13 mph64%30.15 "HgN/A
12:30 AM64 °FPassing clouds.15 mph68%30.15 "HgN/A
12:00 AM64 °FPassing clouds.14 mph68%30.15 "HgN/A
11:30 PM
Dec 20
63 °FPassing clouds.15 mph73%30.12 "HgN/A
11:00 PM63 °FPassing clouds.14 mph73%30.15 "HgN/A
10:30 PM63 °FPassing clouds.13 mph68%30.15 "HgN/A
10:00 PM63 °FPassing clouds.14 mph68%30.15 "HgN/A
Weather by CustomWeather, © 2014

See weather overviewHow to use our weather pages